Tiempo cada hora Gojan i Eperm

Hoy, 22 Junio, Martes

Tiempo Temperatura Precipitaciones Viento Presión Humedad
00:00 +19°C° 0 mm 2 mps 688 mmHg 75%
01:00 +19°C° 0 mm 2 mps 688 mmHg 74%
02:00 +19°C° 0 mm 2 mps 688 mmHg 72%
03:00 +18°C° 0 mm 2 mps 688 mmHg 71%
04:00 +18°C° 0 mm 2 mps 688 mmHg 69%
05:00 +20°C° 0 mm 2 mps 688 mmHg 64%
06:00 +24°C° 0 mm 1 mps 689 mmHg 60%
07:00 +26°C° 0 mm 1 mps 689 mmHg 55%
08:00 +27°C° 0 mm 2 mps 690 mmHg 51%
09:00 +28°C° 0 mm 2 mps 690 mmHg 47%
10:00 +29°C° 0 mm 2 mps 691 mmHg 42%
11:00 +30°C° 0 mm 2 mps 690 mmHg 40%
12:00 +31°C° 0 mm 2 mps 690 mmHg 38%
13:00 +31°C° 0 mm 3 mps 690 mmHg 36%
14:00 +31°C° 0 mm 3 mps 690 mmHg 38%
15:00 +31°C° 0 mm 2 mps 690 mmHg 40%
16:00 +30°C° 0 mm 2 mps 690 mmHg 42%
17:00 +28°C° 0 mm 2 mps 690 mmHg 48%
18:00 +26°C° 0 mm 2 mps 690 mmHg 54%
19:00 +24°C° 0 mm 1 mps 690 mmHg 61%
20:00 +23°C° 0 mm 1 mps 690 mmHg 59%
21:00 +21°C° 0 mm 2 mps 690 mmHg 58%
22:00 +21°C° 0 mm 2 mps 690 mmHg 57%
23:00 +20°C° 0 mm 2 mps 690 mmHg 55%

Mañana, 23 Junio, Miércoles

Tiempo Temperatura Precipitaciones Viento Presión Humedad
00:00 +20°C° 0 mm 2 mps 690 mmHg 54%
01:00 +20°C° 0 mm 2 mps 690 mmHg 52%
02:00 +20°C° 0 mm 2 mps 690 mmHg 51%
03:00 +20°C° 0 mm 2 mps 690 mmHg 50%
04:00 +19°C° 0 mm 2 mps 690 mmHg 49%
05:00 +22°C° 0 mm 1 mps 690 mmHg 48%
06:00 +24°C° 0 mm 1 mps 691 mmHg 47%
07:00 +26°C° 0 mm 1 mps 691 mmHg 46%
08:00 +28°C° 0 mm 1 mps 692 mmHg 42%
09:00 +30°C° 0 mm 1 mps 692 mmHg 39%
10:00 +31°C° 0 mm 1 mps 692 mmHg 35%
11:00 +32°C° 0 mm 1 mps 692 mmHg 33%
12:00 +33°C° 0 mm 1 mps 692 mmHg 31%
13:00 +34°C° 0 mm 1 mps 693 mmHg 29%
14:00 +33°C° 0 mm 1 mps 693 mmHg 31%
15:00 +33°C° 0 mm 1 mps 692 mmHg 33%
16:00 +33°C° 0 mm 1 mps 692 mmHg 35%
17:00 +31°C° 0 mm 1 mps 692 mmHg 41%
18:00 +28°C° 0 mm 1 mps 692 mmHg 48%
19:00 +24°C° 0 mm 0 mps 692 mmHg 55%
20:00 +25°C° 0 mm 1 mps 692 mmHg 55%
21:00 +24°C° 0 mm 1 mps 692 mmHg 55%
22:00 +24°C° 0 mm 1 mps 692 mmHg 55%
23:00 +23°C° 0 mm 1 mps 692 mmHg 54%

Pasado mañana, 24 Junio, Jueves

Tiempo Temperatura Precipitaciones Viento Presión Humedad
00:00 +23°C° 0 mm 1 mps 692 mmHg 53%
01:00 +23°C° 0 mm 2 mps 692 mmHg 52%
02:00 +23°C° 0 mm 2 mps 692 mmHg 51%
03:00 +23°C° 0 mm 2 mps 692 mmHg 51%
04:00 +23°C° 0 mm 2 mps 692 mmHg 50%
05:00 +25°C° 0 mm 1 mps 692 mmHg 48%
06:00 +27°C° 0 mm 1 mps 693 mmHg 47%
07:00 +27°C° 0 mm 0 mps 693 mmHg 45%
08:00 +30°C° 0 mm 1 mps 693 mmHg 40%
09:00 +32°C° 0 mm 1 mps 694 mmHg 36%
10:00 +34°C° 0 mm 1 mps 694 mmHg 31%
11:00 +35°C° 0 mm 2 mps 694 mmHg 29%
12:00 +36°C° 0 mm 2 mps 694 mmHg 27%
13:00 +36°C° 0 mm 2 mps 694 mmHg 26%
14:00 +36°C° 0 mm 2 mps 694 mmHg 27%
15:00 +36°C° 0 mm 2 mps 693 mmHg 28%
16:00 +36°C° 0 mm 2 mps 693 mmHg 29%
17:00 +32°C° 0 mm 2 mps 693 mmHg 36%
18:00 +29°C° 0 mm 1 mps 693 mmHg 43%
19:00 +26°C° 0 mm 1 mps 692 mmHg 50%
20:00 +25°C° 0 mm 2 mps 692 mmHg 52%
21:00 +24°C° 0 mm 2 mps 693 mmHg 54%
22:00 +23°C° 0 mm 2 mps 693 mmHg 55%
23:00 +21°C° 0 mm 2 mps 692 mmHg 54%

25 Junio, Viernes

Tiempo Temperatura Precipitaciones Viento Presión Humedad
00:00 +21°C° 0 mm 2 mps 692 mmHg 53%
01:00 +21°C° 0 mm 2 mps 692 mmHg 52%
02:00 +21°C° 0 mm 2 mps 692 mmHg 49%
03:00 +21°C° 0 mm 2 mps 691 mmHg 46%
04:00 +21°C° 0 mm 2 mps 691 mmHg 44%
05:00 +24°C° 0 mm 1 mps 692 mmHg 43%
06:00 +26°C° 0 mm 1 mps 692 mmHg 43%
07:00 +28°C° 0 mm 1 mps 692 mmHg 43%
08:00 +30°C° 0 mm 1 mps 693 mmHg 38%
09:00 +31°C° 0 mm 2 mps 693 mmHg 34%
10:00 +34°C° 0 mm 2 mps 693 mmHg 29%
11:00 +34°C° 0 mm 2 mps 693 mmHg 28%
12:00 +35°C° 0 mm 3 mps 693 mmHg 28%
13:00 +35°C° 0 mm 3 mps 693 mmHg 27%
14:00 +34°C° 0 mm 3 mps 693 mmHg 30%
15:00 +33°C° 0 mm 4 mps 692 mmHg 32%
16:00 +33°C° 0 mm 4 mps 692 mmHg 34%
17:00 +30°C° 0 mm 3 mps 692 mmHg 39%
18:00 +27°C° 0 mm 2 mps 691 mmHg 44%
19:00 +25°C° 0 mm 1 mps 691 mmHg 49%
20:00 +24°C° 0 mm 2 mps 691 mmHg 47%
21:00 +24°C° 0 mm 2 mps 691 mmHg 45%
22:00 +23°C° 0 mm 2 mps 691 mmHg 43%
23:00 +23°C° 0 mm 2 mps 691 mmHg 43%

26 Junio, Sábado

Tiempo Temperatura Precipitaciones Viento Presión Humedad
00:00 +23°C° 0 mm 2 mps 690 mmHg 43%
01:00 +21°C° 0 mm 2 mps 690 mmHg 43%
02:00 +21°C° 0 mm 2 mps 690 mmHg 44%
03:00 +21°C° 0 mm 2 mps 690 mmHg 45%
04:00 +21°C° 0 mm 1 mps 690 mmHg 46%
05:00 +23°C° 0 mm 1 mps 690 mmHg 45%
06:00 +25°C° 0 mm 1 mps 690 mmHg 45%
07:00 +26°C° 0 mm 1 mps 691 mmHg 45%
08:00 +27°C° 0 mm 1 mps 691 mmHg 42%
09:00 +29°C° 0 mm 2 mps 691 mmHg 39%
10:00 +30°C° 0 mm 2 mps 691 mmHg 37%
11:00 +30°C° 0 mm 3 mps 691 mmHg 36%
12:00 +30°C° 0 mm 3 mps 691 mmHg 35%
13:00 +31°C° 0 mm 3 mps 691 mmHg 34%
14:00 +30°C° 0 mm 3 mps 691 mmHg 36%
15:00 +30°C° 0 mm 3 mps 691 mmHg 37%
16:00 +29°C° 0 mm 3 mps 690 mmHg 39%
17:00 +27°C° 0 mm 2 mps 690 mmHg 47%
18:00 +25°C° 0 mm 1 mps 690 mmHg 56%
19:00 +22°C° 0 mm 1 mps 690 mmHg 64%
20:00 +21°C° 0 mm 1 mps 690 mmHg 66%
21:00 +20°C° 0 mm 1 mps 690 mmHg 68%
22:00 +19°C° 0 mm 1 mps 690 mmHg 70%
23:00 +19°C° 0 mm 1 mps 690 mmHg 71%

27 Junio, Domingo

Tiempo Temperatura Precipitaciones Viento Presión Humedad
00:00 +17°C° 0 mm 2 mps 690 mmHg 71%
01:00 +17°C° 0 mm 2 mps 690 mmHg 72%
02:00 +17°C° 0 mm 2 mps 690 mmHg 74%
03:00 +16°C° 0 mm 2 mps 690 mmHg 76%
04:00 +16°C° 0 mm 2 mps 690 mmHg 78%
05:00 +18°C° 0 mm 2 mps 690 mmHg 73%
06:00 +20°C° 0 mm 2 mps 691 mmHg 68%
07:00 +23°C° 0 mm 2 mps 691 mmHg 63%
08:00 +24°C° 0 mm 2 mps 691 mmHg 56%
09:00 +26°C° 0 mm 2 mps 691 mmHg 49%
10:00 +28°C° 0 mm 1 mps 692 mmHg 43%
11:00 +29°C° 0 mm 1 mps 692 mmHg 39%
12:00 +30°C° 0 mm 2 mps 691 mmHg 35%
13:00 +31°C° 0 mm 2 mps 691 mmHg 31%
14:00 +31°C° 0 mm 2 mps 691 mmHg 32%
15:00 +30°C° 0 mm 2 mps 691 mmHg 32%
16:00 +30°C° 0 mm 2 mps 691 mmHg 32%
17:00 +28°C° 0 mm 1 mps 691 mmHg 39%
18:00 +25°C° 0 mm 1 mps 690 mmHg 46%
19:00 +21°C° 0 mm 0 mps 690 mmHg 53%
20:00 +22°C° 0 mm 1 mps 690 mmHg 54%
21:00 +21°C° 0 mm 1 mps 690 mmHg 54%
22:00 +21°C° 0 mm 1 mps 690 mmHg 55%
23:00 +20°C° 0 mm 1 mps 690 mmHg 57%
Mostrar más

Necesitamos Su Consentimiento

Meteoprog y nuestros Proveedores de Servicios pueden almacenar y acceder a sus datos personales como cookies, identificadores de dispositivo u otras tecnologías similares de su dispositivo y procesar dichos datos para personalizar contenido y anuncios, además de ofrecer funciones de redes sociales y analizar el tráfico.

  • Almacenar y/o acceder a información en su dispositivo

    Se puede almacenar o acceder a cookies, identificadores de dispositivo u otra información de su dispositivo para los fines anteriormente indicados.

  • Anuncios y contenido personalizados, medición de anuncios y contenido, percepciones del público, y desarrollo de productos

    Los anuncios y el contenido pueden personalizarse en base a su perfil. Se pueden añadir más datos para personalizar mejor los anuncios y contenidos. Se puede medir el rendimiento de los anuncios y contenidos. Se puede obtener la percepción sobre el público que ha visto los anuncios y contenidos. Dichos datos pueden usarse para desarrollar o mejorar la experiencia del usuario, sistemas y software.

Al hacer clic en ‘Estoy De Acuerdo’ usted permitirá el uso de las cookies, identificadores de dispositivo, balizas web u otras tecnologías similares indicadas. Su configuración puede cambiarse desde el navegador de su dispositivo.

Para ciertos fines, los intereses legítimos pueden ser considerados por encima del consentimiento. Puede leer más sobre ello en nuestra Política de Privacidad y Cookies.